Voltar ao catálogo

STARLINK-33858

AtivoComunicaçõesVLEO
NORAD 63885·PAYLOAD·🇺🇸 United States

Lançado May 10, 2025 de Vandenberg Space Force Base

Loading…

Próximas Passagens (próximas 24 horas)

TLE

AtualizadoSource: CelesTrak SupGP

Época: Sep 14, 2026, 22:52 UTC

1 63885C 25094X   26257.95326389  .00011548  00000+0  40173-3 0  2570
2 63885  69.9990 115.7404 0003270 271.6311 355.8632 15.29571518    16

Acompanhe STARLINK-33858 em tempo real com AllMySat

Download on the App Store